User: anonymous   Login
Location: Caribou
(46.8667°N, 68.0167°W)
Time: 22:03:41
(UTC-04:00)
Language:

SL-08 RB Rocket - Orbit

View from above orbital plane
View from above orbital plane
View from above satellite
View from above satellite

Ground track
Ground track

The orbit data is extracted from the following two-line orbital elements,

1 26387U 00033D   17081.95517663 +.00000055 +00000-0 +17938-4 0  9993
2 26387 097.9803 148.4098 0025238 250.0631 214.6222 14.68249249152911
Epoch (UTC): 22 March 2017 22:55:27
Eccentricity: 0.0025238
inclination: 97.9803°
perigee height: 649 km
apogee height: 684 km
right ascension of ascending node: 148.4098°
argument of perigee: 250.0631°
revolutions per day: 14.68249249
mean anomaly at epoch: 214.6222°
orbit number at epoch: 15291

The dashed part of the orbit path shows where the satellite is in the earth's shadow,  

DLR